| time (UTC) | temp F | wind direction | speed knots | gust knots | rain 1hr in | rain 24hr in | rain mn in | humidity % | barometer mb |
| 20260505071005 | 43 | 280 | 1.7 | 8.7 | 0.06 | 0.13 | 0.06 | 85 | 1013.1 |
| 20260505070508 | 44 | 279 | 1.7 | 10.4 | 0.06 | 0.13 | 0.06 | 84 | 1013.0 |
| 20260505070012 | 44 | 281 | 2.6 | 10.4 | 0.06 | 0.13 | 0.06 | 84 | 1013.1 |
| 20260505065507 | 44 | 282 | 1.7 | 10.4 | 0.05 | 0.12 | 0.05 | 83 | 1013.2 |
| 20260505065007 | 44 | 287 | 3.5 | 10.4 | 0.04 | 0.11 | 0.04 | 83 | 1013.2 |
| 20260505064514 | 45 | 279 | 2.6 | 9.6 | 0.02 | 0.09 | 0.02 | 81 | 1013.1 |
| 20260505064010 | 45 | 281 | 3.5 | 9.6 | 0.01 | 0.08 | 0.01 | 81 | 1013.3 |
| 20260505063503 | 45 | 285 | 3.5 | 8.7 | 0.00 | 0.07 | 0.00 | 79 | 1013.0 |
| 20260505063008 | 46 | 285 | 3.5 | 9.6 | 0.00 | 0.07 | 0.00 | 78 | 1012.8 |
| 20260505062507 | 46 | 281 | 2.6 | 9.6 | 0.00 | 0.07 | 0.00 | 77 | 1012.6 |
| 20260505062003 | 46 | 281 | 2.6 | 12.2 | 0.00 | 0.07 | 0.00 | 77 | 1012.5 |
| 20260505061511 | 46 | 282 | 3.5 | 12.2 | 0.00 | 0.07 | 0.00 | 76 | 1012.4 |
| 20260505061004 | 47 | 279 | 5.2 | 11.3 | 0.00 | 0.07 | 0.00 | 76 | 1012.4 |
| 20260505060511 | 47 | 280 | 1.7 | 11.3 | 0.00 | 0.07 | 0.00 | 77 | 1012.2 |
| 20260505060017 | 48 | 279 | 3.5 | 11.3 | 0.00 | 0.07 | 0.00 | 77 | 1012.1 |
| 20260505055507 | 49 | 281 | 4.3 | 11.3 | 0.00 | 0.07 | 0.07 | 82 | 1012.1 |
| 20260505055007 | 49 | 287 | 0.0 | 0.9 | 0.00 | 0.07 | 0.07 | 83 | 1012.1 |
| 20260505054530 | 49 | 287 | 0.0 | 0.0 | 0.00 | 0.07 | 0.07 | 82 | 1011.9 |
| 20260505054008 | 49 | 287 | 0.0 | 0.0 | 0.00 | 0.07 | 0.07 | 83 | 1011.7 |
| 20260505053511 | 49 | 287 | 0.0 | 0.9 | 0.00 | 0.07 | 0.07 | 83 | 1011.6 |
| 20260505053016 | 49 | 287 | 0.0 | 0.9 | 0.00 | 0.07 | 0.07 | 83 | 1011.5 |
| 20260505052503 | 49 | 287 | 0.0 | 0.9 | 0.00 | 0.07 | 0.07 | 83 | 1011.5 |
| 20260505052003 | 49 | 287 | 0.0 | 0.9 | 0.00 | 0.07 | 0.07 | 83 | 1011.4 |
| 20260505051511 | 49 | 287 | 0.0 | 0.0 | 0.00 | 0.07 | 0.07 | 83 | 1011.4 |
| 20260505051004 | 49 | 287 | 0.0 | 0.0 | 0.00 | 0.07 | 0.07 | 82 | 1011.3 |
| 20260505050512 | 49 | 287 | 0.0 | 0.0 | 0.00 | 0.07 | 0.07 | 82 | 1011.3 |
| 20260505041507 | 49 | 287 | 0.0 | 1.7 | 0.00 | 0.07 | 0.07 | 81 | 1011.3 |
| 20260505041005 | 49 | 287 | 0.0 | 0.0 | 0.00 | 0.07 | 0.07 | 81 | 1011.2 |
| 20260505040507 | 50 | 287 | 0.0 | 0.9 | 0.00 | 0.07 | 0.07 | 81 | 1011.2 |
| 20260505040014 | 49 | 287 | 0.0 | 1.7 | 0.00 | 0.07 | 0.07 | 81 | 1011.2 |
| 20260505035504 | 49 | 287 | 0.0 | 1.7 | 0.00 | 0.07 | 0.07 | 81 | 1011.1 |
| 20260505035004 | 49 | 287 | 0.0 | 1.7 | 0.00 | 0.07 | 0.07 | 80 | 1011.2 |
| 20260505034524 | 49 | 285 | 0.0 | 3.5 | 0.00 | 0.07 | 0.07 | 80 | 1011.2 |
| 20260505034008 | 49 | 285 | 0.0 | 3.5 | 0.00 | 0.07 | 0.07 | 81 | 1011.2 |
| 20260505033506 | 50 | 285 | 0.0 | 3.5 | 0.00 | 0.07 | 0.07 | 81 | 1011.2 |
| 20260505033018 | 50 | 279 | 0.9 | 4.3 | 0.00 | 0.07 | 0.07 | 81 | 1011.1 |
| 20260505032507 | 50 | 279 | 0.9 | 4.3 | 0.00 | 0.07 | 0.07 | 83 | 1011.2 |
| 20260505032008 | 50 | 270 | 0.0 | 0.0 | 0.00 | 0.07 | 0.07 | 83 | 1011.2 |
| 20260505031516 | 50 | 270 | 0.0 | 0.9 | 0.00 | 0.07 | 0.07 | 84 | 1011.2 |
| 20260505031007 | 50 | 270 | 0.0 | 0.9 | 0.00 | 0.07 | 0.07 | 84 | 1011.2 |
| 20260505030508 | 50 | 270 | 0.0 | 0.9 | 0.00 | 0.07 | 0.07 | 85 | 1011.2 |
| 20260505030036 | 50 | 270 | 0.0 | 0.9 | 0.00 | 0.07 | 0.07 | 85 | 1011.0 |
| 20260505025513 | 50 | 270 | 0.0 | 0.0 | 0.00 | 0.07 | 0.07 | 86 | 1010.9 |
| 20260505025008 | 50 | 270 | 0.0 | 0.9 | 0.01 | 0.07 | 0.07 | 86 | 1010.9 |
| 20260505023507 | 50 | 270 | 0.0 | 0.0 | 0.01 | 0.07 | 0.07 | 85 | 1010.6 |
| 20260505023016 | 50 | 270 | 0.0 | 0.0 | 0.01 | 0.07 | 0.07 | 85 | 1010.5 |
| 20260505022510 | 50 | 270 | 0.0 | 0.0 | 0.01 | 0.07 | 0.07 | 85 | 1010.4 |
| 20260505022008 | 50 | 270 | 0.0 | 0.0 | 0.01 | 0.07 | 0.07 | 84 | 1010.3 |
| 20260505021523 | 50 | 270 | 0.0 | 0.0 | 0.01 | 0.07 | 0.07 | 84 | 1010.3 |
| 20260505021007 | 50 | 270 | 0.0 | 0.9 | 0.01 | 0.07 | 0.07 | 83 | 1010.3 |
| 20260505020507 | 50 | 270 | 0.0 | 1.7 | 0.02 | 0.07 | 0.07 | 84 | 1010.3 |
| 20260505020019 | 50 | 270 | 0.0 | 1.7 | 0.02 | 0.07 | 0.07 | 83 | 1010.2 |
| 20260505015509 | 50 | 275 | 0.0 | 0.9 | 0.02 | 0.07 | 0.07 | 83 | 1010.4 |
| 20260505015009 | 50 | 275 | 0.0 | 0.9 | 0.02 | 0.06 | 0.06 | 82 | 1010.6 |
| 20260505012509 | 50 | 279 | 0.9 | 4.3 | 0.03 | 0.06 | 0.06 | 81 | 1010.7 |
| 20260505012011 | 50 | 285 | 0.0 | 4.3 | 0.03 | 0.06 | 0.06 | 80 | 1010.4 |
| 20260505011515 | 51 | 286 | 0.9 | 6.1 | 0.03 | 0.06 | 0.06 | 80 | 1010.4 |
| 20260505011007 | 51 | 279 | 0.9 | 7.8 | 0.04 | 0.06 | 0.06 | 80 | 1010.5 |
| 20260505010507 | 51 | 285 | 0.9 | 7.8 | 0.03 | 0.05 | 0.05 | 80 | 1010.7 |
| 20260505010020 | 51 | 279 | 1.7 | 7.0 | 0.03 | 0.05 | 0.05 | 79 | 1010.6 |
| 20260505005512 | 51 | 279 | 2.6 | 7.0 | 0.03 | 0.05 | 0.05 | 79 | 1010.6 |
| 20260505005008 | 52 | 279 | 2.6 | 7.8 | 0.02 | 0.04 | 0.04 | 78 | 1010.6 |
| 20260505004536 | 52 | 287 | 3.5 | 8.7 | 0.02 | 0.04 | 0.04 | 77 | 1010.6 |
| 20260505004010 | 53 | 279 | 3.5 | 8.7 | 0.02 | 0.04 | 0.04 | 75 | 1010.6 |
| 20260505003504 | 53 | 287 | 3.5 | 9.6 | 0.01 | 0.03 | 0.03 | 74 | 1010.7 |
| 20260505003011 | 54 | 270 | 3.5 | 9.6 | 0.01 | 0.03 | 0.03 | 71 | 1010.6 |
| 20260505002505 | 54 | 270 | 3.5 | 9.6 | 0.03 | 0.03 | 0.03 | 69 | 1010.5 |
| 20260505002008 | 55 | 270 | 0.9 | 5.2 | 0.03 | 0.03 | 0.03 | 70 | 1010.4 |
| 20260505001515 | 55 | 270 | 0.0 | 3.5 | 0.03 | 0.03 | 0.03 | 71 | 1010.3 |
| 20260505001007 | 55 | 270 | 0.0 | 5.2 | 0.02 | 0.02 | 0.02 | 71 | 1010.2 |
| 20260505000511 | 55 | 270 | 0.9 | 5.2 | 0.02 | 0.02 | 0.02 | 70 | 1010.3 |
| 20260505000023 | 56 | 270 | 0.9 | 3.5 | 0.02 | 0.02 | 0.02 | 70 | 1010.3 |
| 20260504235507 | 56 | 270 | 0.0 | 0.9 | 0.02 | 0.02 | 0.02 | 67 | 1010.1 |
| 20260504235008 | 56 | 270 | 0.0 | 0.9 | 0.02 | 0.02 | 0.02 | 64 | 1010.0 |
| 20260504234506 | 56 | 270 | 0.0 | 1.7 | 0.02 | 0.02 | 0.02 | 62 | 1010.0 |
| 20260504234003 | 56 | 270 | 0.0 | 2.6 | 0.02 | 0.02 | 0.02 | 65 | 1010.0 |
| 20260504233504 | 57 | 270 | 0.0 | 4.3 | 0.02 | 0.02 | 0.02 | 61 | 1010.0 |
| 20260504233009 | 58 | 270 | 0.0 | 7.0 | 0.02 | 0.02 | 0.02 | 59 | 1010.1 |
| 20260504232507 | 60 | 270 | 0.0 | 15.6 | 0.00 | 0.00 | 0.00 | 52 | 1010.2 |
| 20260504232005 | 60 | 270 | 4.3 | 15.6 | 0.00 | 0.00 | 0.00 | 49 | 1010.0 |
| 20260504231511 | 61 | 270 | 1.7 | 9.6 | 0.00 | 0.00 | 0.00 | 47 | 1010.0 |
| 20260504231011 | 62 | 270 | 0.0 | 7.8 | 0.00 | 0.00 | 0.00 | 43 | 1009.7 |
| 20260504230507 | 62 | 270 | 1.7 | 7.8 | 0.00 | 0.00 | 0.00 | 43 | 1009.4 |
| 20260504230018 | 62 | 270 | 2.6 | 7.0 | 0.00 | 0.00 | 0.00 | 42 | 1009.2 |
| 20260504225508 | 62 | 270 | 1.7 | 8.7 | 0.00 | 0.00 | 0.00 | 41 | 1009.0 |
| 20260504225010 | 63 | 270 | 2.6 | 8.7 | 0.00 | 0.00 | 0.00 | 41 | 1009.0 |
| 20260504224529 | 63 | 279 | 3.5 | 8.7 | 0.00 | 0.00 | 0.00 | 40 | 1008.8 |
| 20260504224011 | 64 | 279 | 1.7 | 9.6 | 0.00 | 0.00 | 0.00 | 38 | 1008.7 |
| 20260504223009 | 65 | 279 | 5.2 | 13.0 | 0.00 | 0.00 | 0.00 | 37 | 1008.7 |
| 20260504222504 | 66 | 280 | 4.3 | 13.0 | 0.00 | 0.00 | 0.00 | 36 | 1008.7 |
| 20260504222007 | 67 | 296 | 3.5 | 9.6 | 0.00 | 0.00 | 0.00 | 35 | 1008.7 |
| 20260504221513 | 67 | 96 | 2.6 | 9.6 | 0.00 | 0.00 | 0.00 | 36 | 1008.7 |
| 20260504221005 | 67 | 43 | 2.6 | 9.6 | 0.00 | 0.00 | 0.00 | 36 | 1008.7 |
| 20260504220505 | 66 | 352 | 1.7 | 9.6 | 0.00 | 0.00 | 0.00 | 37 | 1008.8 |
| 20260504220014 | 66 | 318 | 2.6 | 7.0 | 0.00 | 0.00 | 0.00 | 38 | 1008.9 |
| 20260504215509 | 65 | 296 | 1.7 | 5.2 | 0.00 | 0.00 | 0.00 | 38 | 1009.0 |
| 20260504215010 | 65 | 13 | 0.0 | 3.5 | 0.00 | 0.00 | 0.00 | 40 | 1009.0 |
| 20260504214520 | 64 | 11 | 0.9 | 3.5 | 0.00 | 0.00 | 0.00 | 39 | 1009.2 |
| 20260504214009 | 64 | 281 | 0.0 | 3.5 | 0.00 | 0.00 | 0.00 | 40 | 1009.2 |
| 20260504213509 | 64 | 286 | 1.7 | 3.5 | 0.00 | 0.00 | 0.00 | 40 | 1009.1 |
| 20260504213035 | 64 | 285 | 0.0 | 2.6 | 0.00 | 0.00 | 0.00 | 40 | 1009.0 |
| 20260504212510 | 63 | 287 | 0.0 | 2.6 | 0.00 | 0.00 | 0.00 | 40 | 1009.2 |
| 20260504212005 | 63 | 283 | 0.0 | 4.3 | 0.00 | 0.00 | 0.00 | 42 | 1009.1 |
| 20260504211507 | 63 | 283 | 0.9 | 6.1 | 0.00 | 0.00 | 0.00 | 41 | 1009.2 |
| 20260504211004 | 63 | 283 | 0.9 | 7.0 | 0.00 | 0.00 | 0.00 | 41 | 1009.1 |
| 20260504210506 | 63 | 280 | 1.7 | 8.7 | 0.00 | 0.00 | 0.00 | 40 | 1009.2 |
| 20260504210015 | 64 | 279 | 3.5 | 11.3 | 0.00 | 0.00 | 0.00 | 39 | 1009.3 |
| 20260504205507 | 64 | 320 | 3.5 | 14.8 | 0.00 | 0.00 | 0.00 | 38 | 1009.1 |
| 20260504205007 | 65 | 27 | 7.0 | 21.7 | 0.00 | 0.00 | 0.00 | 37 | 1009.1 |
| 20260504204517 | 64 | 13 | 6.1 | 21.7 | 0.00 | 0.00 | 0.00 | 37 | 1009.3 |
| 20260504204008 | 65 | 333 | 7.0 | 12.2 | 0.00 | 0.00 | 0.00 | 36 | 1009.2 |
| 20260504203513 | 65 | 259 | 6.1 | 11.3 | 0.00 | 0.00 | 0.00 | 36 | 1009.2 |
| 20260504203022 | 65 | 68 | 3.5 | 13.0 | 0.00 | 0.00 | 0.00 | 35 | 1008.8 |
| 20260504202509 | 64 | 25 | 1.7 | 13.0 | 0.00 | 0.00 | 0.00 | 37 | 1008.7 |
| 20260504202010 | 63 | 287 | 5.2 | 13.9 | 0.00 | 0.00 | 0.00 | 36 | 1008.6 |
| 20260504201527 | 63 | 284 | 3.5 | 15.6 | 0.00 | 0.00 | 0.00 | 37 | 1008.7 |
| 20260504201009 | 63 | 283 | 7.0 | 17.4 | 0.00 | 0.00 | 0.00 | 36 | 1008.9 |
| 20260504200503 | 63 | 281 | 7.0 | 17.4 | 0.00 | 0.00 | 0.00 | 36 | 1008.7 |
| 20260504200010 | 63 | 279 | 4.3 | 13.9 | 0.00 | 0.00 | 0.00 | 35 | 1008.8 |
| 20260504195506 | 63 | 279 | 5.2 | 15.6 | 0.00 | 0.00 | 0.00 | 34 | 1008.8 |
| 20260504195007 | 64 | 283 | 7.0 | 15.6 | 0.00 | 0.00 | 0.00 | 32 | 1008.7 |
| 20260504194520 | 66 | 256 | 5.2 | 14.8 | 0.00 | 0.00 | 0.00 | 29 | 1008.6 |
| 20260504194009 | 67 | 71 | 1.7 | 13.0 | 0.00 | 0.00 | 0.00 | 25 | 1008.9 |
| 20260504193020 | 67 | 300 | 0.9 | 26.1 | 0.00 | 0.00 | 0.00 | 25 | 1008.1 |
| 20260504192508 | 68 | 289 | 6.1 | 26.1 | 0.00 | 0.00 | 0.00 | 26 | 1008.5 |
| 20260504192009 | 68 | 254 | 0.0 | 12.2 | 0.00 | 0.00 | 0.00 | 25 | 1008.2 |
| 20260504191527 | 68 | 125 | 3.5 | 12.2 | 0.00 | 0.00 | 0.00 | 26 | 1007.9 |
| 20260504191009 | 68 | 270 | 5.2 | 15.6 | 0.00 | 0.00 | 0.00 | 28 | 1008.2 |
| 20260504190510 | 69 | 270 | 5.2 | 15.6 | 0.00 | 0.00 | 0.00 | 27 | 1007.9 |
| 20260504190028 | 69 | 322 | 4.3 | 13.0 | 0.00 | 0.00 | 0.00 | 26 | 1008.0 |
| 20260504185509 | 69 | 279 | 7.0 | 13.9 | 0.00 | 0.00 | 0.00 | 26 | 1008.1 |
| 20260504185007 | 69 | 275 | 7.8 | 13.9 | 0.00 | 0.00 | 0.00 | 26 | 1008.0 |
| 20260504184529 | 69 | 275 | 5.2 | 13.9 | 0.00 | 0.00 | 0.00 | 27 | 1008.1 |
| 20260504184010 | 70 | 292 | 5.2 | 12.2 | 0.00 | 0.00 | 0.00 | 27 | 1008.0 |
| 20260504183508 | 70 | 162 | 6.1 | 12.2 | 0.00 | 0.00 | 0.00 | 25 | 1008.1 |
| 20260504183019 | 70 | 292 | 3.5 | 10.4 | 0.00 | 0.00 | 0.00 | 27 | 1008.1 |
| 20260504182512 | 70 | 283 | 6.1 | 10.4 | 0.00 | 0.00 | 0.00 | 27 | 1008.1 |
| 20260504182010 | 70 | 282 | 3.5 | 7.8 | 0.00 | 0.00 | 0.00 | 26 | 1008.0 |
| 20260504181523 | 70 | 296 | 3.5 | 8.7 | 0.00 | 0.00 | 0.00 | 27 | 1008.1 |
| 20260504181010 | 70 | 296 | 1.7 | 8.7 | 0.00 | 0.00 | 0.00 | 26 | 1008.1 |
| 20260504180512 | 70 | 270 | 2.6 | 8.7 | 0.00 | 0.00 | 0.00 | 27 | 1008.2 |
| 20260504180032 | 70 | 99 | 1.7 | 5.2 | 0.00 | 0.00 | 0.00 | 26 | 1008.1 |
| 20260504175511 | 70 | 285 | 0.9 | 6.1 | 0.00 | 0.00 | 0.00 | 25 | 1008.2 |
| 20260504175010 | 70 | 281 | 1.7 | 6.1 | 0.00 | 0.00 | 0.00 | 26 | 1008.3 |
| 20260504174526 | 70 | 293 | 0.9 | 5.2 | 0.00 | 0.00 | 0.00 | 25 | 1008.3 |
| 20260504174007 | 70 | 291 | 1.7 | 6.1 | 0.00 | 0.00 | 0.00 | 26 | 1008.4 |
| 20260504173506 | 70 | 280 | 0.9 | 6.1 | 0.00 | 0.00 | 0.00 | 26 | 1008.5 |
| 20260504173017 | 70 | 279 | 1.7 | 6.1 | 0.00 | 0.00 | 0.00 | 26 | 1008.5 |
| 20260504172507 | 70 | 287 | 0.0 | 5.2 | 0.00 | 0.00 | 0.00 | 27 | 1008.5 |
| 20260504172008 | 69 | 279 | 0.9 | 7.8 | 0.00 | 0.00 | 0.00 | 26 | 1008.5 |
| 20260504171519 | 70 | 282 | 0.9 | 7.8 | 0.00 | 0.00 | 0.00 | 26 | 1008.5 |
| 20260504171011 | 69 | 301 | 1.7 | 7.0 | 0.00 | 0.00 | 0.00 | 26 | 1008.5 |
| 20260504170507 | 69 | 293 | 0.9 | 7.0 | 0.00 | 0.00 | 0.00 | 26 | 1008.5 |
| 20260504151008 | 62 | 149 | 0.0 | 1.7 | 0.00 | 0.00 | 0.00 | 35 | 1008.8 |
| 20260504150511 | 61 | 181 | 0.0 | 2.6 | 0.00 | 0.00 | 0.00 | 37 | 1008.8 |
| 20260504141013 | 52 | 270 | 0.0 | 2.6 | 0.00 | 0.00 | 0.00 | 43 | 1009.1 |
| 20260504140509 | 51 | 270 | 0.0 | 2.6 | 0.00 | 0.00 | 0.00 | 44 | 1009.1 |
| 20260504130510 | 47 | 275 | 0.0 | 4.3 | 0.00 | 0.00 | 0.00 | 46 | 1009.3 |
| 20260504110508 | 47 | 279 | 1.7 | 4.3 | 0.00 | 0.00 | 0.00 | 46 | 1009.5 |
| 20260504100510 | 47 | 275 | 0.9 | 6.1 | 0.00 | 0.00 | 0.00 | 46 | 1009.8 |
| 20260504082007 | 49 | 275 | 0.9 | 6.1 | 0.00 | 0.00 | 0.00 | 44 | 1010.5 |
| 20260504081517 | 49 | 275 | 1.7 | 6.1 | 0.00 | 0.00 | 0.00 | 45 | 1010.6 |
| 20260504081010 | 49 | 275 | 0.9 | 4.3 | 0.00 | 0.00 | 0.00 | 44 | 1010.7 |
| 20260504080508 | 49 | 275 | 0.9 | 3.5 | 0.00 | 0.00 | 0.00 | 44 | 1010.7 |